Location: Bun Machan
(52.1403°N, 7.3744°W)
Time: 08:40:03
(UTC+00:00)

Cosmos 1437 Rocket - Pass Details

Date: 14 July 2020
Orbit: 506 x 562 km, 81.2° (Epoch: 04 August)

Event Time Altitude Azimuth Distance (km) Brightness Sun altitude
Rises 02:04:06 0° 346° (NNW) 2,748 7.4 -13.7°
Reaches altitude 10° 02:06:18 10° 346° (NNW) 1,841 6.3 -13.6°
Maximum altitude 02:10:22 87° 257° (WSW) 553 2.7 -13.4°
Enters shadow 02:13:24 17° 170° (S) 1,416 4.4 -13.2°
